Wind_Speed
19 18 18 17 16 16 16 17 17 17 16 14 12 11 9 8 7 6 6 5 4 4 3 3 4 4 5 5 6 7 8 9 9 9 9 10 10 10 9 8 6 5
19 19 18 17 16 16 16 18 18 17 17 15 13 11 10 9 8 7 6 5 4 4 3 2 1 1 2 2 3 4 5 6 7 8 9 10 10 10 10 10 9 7
20 20 19 18 17 17 17 18 18 18 17 15 13 12 11 10 9 8 7 6 5 4 3 3 3 2 2 1 1 2 2 3 4 5 6 7 8 9 9 10 10 10
21 21 20 19 19 19 19 19 19 18 17 16 15 14 13 12 10 9 8 7 6 5 4 3 4 4 4 4 4 4 4 4 3 3 4 5 6 6 7 8 8 9
22 22 22 21 20 20 20 20 19 19 18 18 17 16 14 13 11 10 9 8 7 6 5 5 5 5 5 5 5 5 5 5 5 5 4 4 4 4 5 6 6 7
23 23 22 21 20 19 19 20 20 20 20 19 18 16 15 13 12 11 10 9 8 7 6 6 6 7 7 7 6 6 6 6 6 6 6 5 4 4 4 4 4 5
23 23 22 21 20 19 20 21 21 20 20 19 18 16 15 14 12 12 11 9 8 8 7 7 8 8 8 8 8 7 7 7 7 6 6 6 5 5 4 4 3 4
24 24 23 22 20 20 21 21 21 20 19 17 17 16 15 14 13 12 11 10 9 9 8 8 8 9 10 10 9 9 8 7 7 6 5 5 5 5 5 4 4 4
25 25 24 22 21 21 22 21 20 19 18 17 17 16 15 14 13 13 12 11 10 9 9 9 9 10 11 11 11 10 10 9 8 7 5 5 5 5 5 4 4 4
25 25 23 22 21 22 21 21 20 19 18 18 18 16 16 15 14 12 11 10 10 10 10 10 10 11 11 11 12 12 11 11 9 8 6 5 5 5 5 5 5 5
24 23 22 21 22 22 22 21 21 20 20 19 18 17 16 15 14 13 12 12 12 11 11 11 11 12 12 13 13 13 12 11 11 9 8 7 6 6 5 6 6 6
24 23 22 23 23 23 22 21 21 21 20 20 18 17 16 15 14 14 13 14 14 13 12 11 12 12 13 13 13 13 12 12 11 11 9 8 7 7 7 7 7 7
25 25 24 25 24 23 22 21 21 21 20 19 18 17 17 16 15 15 15 16 15 13 12 12 12 12 13 13 12 12 12 11 11 11 10 10 9 9 8 8 8 8
26 26 26 26 25 23 22 21 21 20 20 19 18 18 18 17 17 17 17 16 14 13 12 12 11 11 11 11 10 10 10 11 11 11 11 11 10 10 9 9 9 8
27 27 27 26 25 23 22 22 21 21 20 20 19 19 18 18 18 18 17 15 14 14 13 12 11 10 10 9 9 9 9 10 11 11 11 11 11 10 10 9 9 8
28 28 28 27 26 24 23 23 22 21 21 21 20 20 20 20 19 18 16 16 15 15 13 12 10 9 8 8 8 8 8 9 9 10 11 11 10 9 9 8 7 5
28 28 27 27 26 25 24 23 22 22 22 21 21 20 21 21 19 18 17 17 17 16 14 12 10 9 8 8 8 8 8 8 8 8 9 9 9 8 8 7 5 4
27 27 26 25 25 24 23 23 23 23 22 21 20 20 21 20 19 18 19 19 18 16 14 12 11 10 9 9 9 9 8 8 9 9 10 9 9 8 7 6 5 3
26 26 25 25 24 24 24 24 23 22 21 21 21 21 20 19 19 20 20 19 17 15 14 13 12 11 11 10 10 9 9 10 10 10 11 10 9 8 7 5 3 2
25 25 25 25 24 24 23 22 21 21 22 22 21 20 19 19 20 20 20 19 17 16 15 14 13 13 13 13 12 11 11 11 11 11 11 11 10 8 7 5 4 4
23 23 23 23 22 22 20 19 19 20 21 22 22 21 21 21 21 21 20 19 19 18 17 16 15 15 16 15 14 14 13 12 12 12 11 11 10 9 7 7 6 6
20 20 20 20 19 19 19 18 18 19 21 22 23 23 22 21 21 21 21 20 19 19 18 17 17 17 17 17 17 16 14 12 12 12 11 10 9 9 9 8 8 9
19 19 19 18 18 18 18 18 18 19 20 22 23 24 24 23 22 23 23 21 21 19 18 18 19 19 19 18 18 17 15 13 13 13 12 10 10 10 10 10 11 12
20 20 20 19 18 18 19 19 19 19 21 22 23 25 26 26 26 26 25 24 23 21 20 20 21 21 20 19 19 18 17 16 16 15 13 11 11 12 13 14 14 15
21 21 21 20 20 19 20 21 21 20 21 22 24 25 27 29 29 28 28 27 25 23 22 22 22 22 21 20 19 19 18 18 18 16 13 12 13 14 15 16 16 17
23 23 23 22 21 21 21 22 21 21 22 23 25 27 29 30 31 30 29 28 26 25 24 23 23 22 22 21 20 19 18 18 18 16 13 14 16 17 17 18 18 19
Wind_Direction
192 195 202 203 201 197 186 180 178 175 174 177 178 175 173 170 171 172 169 167 166 162 150 123 99 90 81 72 67 62 60 59 57 54 52 48 43 38 35 34 36 42
194 197 205 207 204 199 193 188 183 179 178 180 181 180 180 182 183 184 185 185 185 183 181 179 155 120 96 70 57 51 49 52 53 51 52 51 48 44 40 36 33 33
198 200 204 207 205 201 197 194 189 184 184 183 183 186 192 194 192 190 192 194 196 196 197 209 227 241 249 263 291 323 351 11 26 35 39 43 47 46 44 41 38 34
202 203 205 207 206 202 198 196 192 188 188 187 188 192 196 198 197 195 197 197 198 204 209 220 234 251 262 265 270 277 289 304 322 346 1 14 29 37 42 42 39 35
205 206 208 209 207 203 198 196 194 190 189 191 193 194 195 196 196 196 198 197 199 205 216 231 242 253 263 268 272 276 278 285 294 306 316 329 349 7 23 34 33 30
208 209 210 210 208 203 198 197 196 193 192 193 193 194 194 193 192 193 197 200 204 210 220 234 248 256 264 269 271 275 278 281 287 292 299 307 317 327 341 1 12 15
208 209 211 210 206 200 197 198 198 197 196 194 192 193 192 190 189 192 198 203 209 218 226 236 248 259 266 270 271 273 276 279 283 288 295 301 304 305 313 326 338 348
207 208 209 208 203 198 198 199 198 198 197 193 193 193 190 189 191 195 201 206 213 223 232 240 249 258 265 270 274 275 275 275 278 282 287 292 292 295 303 309 309 313
207 208 206 203 199 197 198 198 197 197 194 193 194 193 191 192 196 201 206 211 218 227 236 242 248 255 263 270 276 278 277 275 273 273 276 278 280 285 291 294 293 292
207 208 204 198 195 196 198 198 197 196 193 194 195 193 194 199 204 209 213 216 221 228 236 244 252 258 264 269 273 275 276 275 272 268 264 262 266 272 276 278 278 279
204 204 199 195 194 197 199 198 198 196 194 196 196 196 200 205 209 214 217 220 223 226 233 243 253 261 266 269 270 271 272 272 271 266 259 251 250 253 257 263 265 269
197 196 194 194 197 199 201 200 197 195 194 196 197 200 206 211 214 218 221 224 226 226 231 239 248 256 262 265 267 266 265 263 261 261 258 251 246 245 246 251 258 265
191 192 192 195 199 201 202 200 196 193 194 197 200 204 210 216 219 221 224 225 226 227 233 240 247 251 256 258 259 257 254 251 249 249 250 250 248 247 247 250 255 262
190 192 194 197 200 202 200 198 195 193 195 200 204 209 214 218 221 223 225 225 226 229 234 240 244 248 250 252 251 246 240 236 235 236 238 242 244 246 249 251 254 258
191 192 195 197 198 199 197 197 197 197 200 204 208 213 216 219 221 223 225 228 230 235 240 242 242 240 239 238 234 230 226 223 222 224 227 232 235 239 241 244 248 251
192 193 194 194 195 196 196 198 200 202 205 208 211 214 217 220 221 221 222 226 232 237 242 242 239 233 224 218 214 212 211 209 207 210 215 219 221 223 224 228 232 231
194 195 195 194 194 195 197 199 202 205 208 211 213 215 218 220 221 220 220 224 230 235 237 235 231 224 214 209 206 202 196 189 184 186 192 196 197 196 197 198 193 185
195 195 195 194 195 196 198 201 204 207 211 214 215 217 219 220 220 219 220 224 229 232 232 227 220 214 209 206 205 200 193 183 174 172 173 175 175 173 173 172 168 173
194 194 193 195 198 200 203 204 206 209 213 216 218 219 220 220 219 221 223 226 229 229 226 220 213 209 207 207 207 203 196 186 177 172 169 167 167 167 171 175 185 219
192 193 195 198 202 205 206 207 208 212 216 218 220 221 221 220 220 222 224 227 229 228 224 218 211 208 209 209 208 206 201 191 182 177 174 173 173 177 187 202 221 247
192 193 197 201 204 206 207 208 211 214 217 219 221 222 221 220 221 223 224 226 227 226 224 218 213 212 214 213 211 208 204 196 190 188 187 186 186 194 208 221 236 251
192 194 197 202 205 206 206 208 212 215 218 218 220 222 223 222 223 225 225 225 226 226 225 221 217 218 220 220 217 214 208 202 200 201 202 203 206 214 224 234 246 254
196 198 201 206 210 212 212 215 217 218 220 220 220 222 224 223 224 225 224 224 225 225 224 222 221 222 224 225 224 220 214 211 211 211 212 216 222 231 239 248 257 261
205 207 209 213 218 221 223 225 227 226 225 224 223 224 224 224 225 226 225 224 223 222 221 222 225 226 226 228 229 225 218 217 217 216 218 224 233 243 250 256 262 267
213 215 216 218 221 224 226 228 232 235 233 230 227 226 226 226 226 226 226 225 223 221 221 224 228 230 230 231 234 232 226 224 224 222 226 236 245 251 255 260 265 270
217 221 223 223 224 226 227 229 233 237 238 236 232 229 228 229 228 227 227 227 226 224 224 226 230 234 234 234 237 239 237 236 234 233 239 249 252 255 259 265 270 274
Height
5926 5928 5929 5930 5931 5932 5933 5934 5935 5936 5937 5939 5940 5942 5942 5943 5944 5945 5945 5946 5946 5947 5947 5948 5949 5949 5949 5950 5950 5950 5950 5951 5951 5951 5951 5951 5950 5950 5950 5951 5951 5951
5926 5927 5928 5929 5930 5932 5933 5934 5934 5935 5936 5938 5939 5941 5942 5943 5943 5944 5945 5945 5946 5946 5947 5948 5948 5949 5949 5950 5950 5950 5950 5951 5951 5951 5951 5951 5951 5951 5951 5951 5951 5951
5924 5926 5927 5928 5930 5931 5932 5933 5934 5935 5936 5937 5939 5940 5941 5942 5943 5943 5944 5945 5945 5946 5947 5947 5948 5948 5949 5949 5950 5950 5950 5951 5951 5951 5951 5951 5951 5951 5951 5951 5951 5951
5923 5924 5926 5927 5928 5930 5931 5932 5933 5934 5935 5936 5937 5939 5940 5941 5942 5943 5943 5944 5945 5945 5946 5946 5947 5947 5948 5949 5949 5949 5950 5950 5950 5951 5951 5951 5951 5951 5951 5951 5951 5951
5921 5922 5924 5925 5927 5929 5930 5931 5932 5933 5934 5935 5936 5937 5938 5940 5941 5941 5942 5943 5944 5944 5945 5945 5946 5947 5947 5948 5948 5949 5949 5949 5949 5950 5950 5951 5951 5951 5951 5951 5951 5950
5919 5921 5922 5924 5926 5928 5929 5930 5931 5932 5933 5933 5934 5935 5937 5938 5939 5940 5941 5942 5943 5943 5944 5944 5945 5946 5946 5947 5947 5948 5948 5948 5949 5949 5949 5950 5950 5950 5950 5950 5950 5950
5918 5920 5921 5923 5925 5927 5928 5929 5930 5931 5932 5933 5934 5934 5935 5937 5938 5939 5940 5941 5941 5942 5943 5943 5944 5944 5945 5945 5946 5947 5947 5948 5948 5948 5948 5948 5949 5949 5949 5949 5949 5949
5915 5917 5919 5922 5924 5926 5927 5928 5929 5930 5931 5933 5934 5934 5935 5936 5937 5938 5939 5939 5940 5941 5941 5942 5942 5943 5943 5944 5945 5945 5946 5946 5947 5947 5947 5948 5948 5948 5948 5948 5948 5948
5913 5915 5918 5920 5923 5925 5926 5927 5928 5929 5931 5932 5933 5934 5934 5935 5936 5937 5938 5938 5939 5939 5940 5940 5941 5941 5942 5942 5943 5944 5944 5945 5945 5946 5946 5947 5947 5946 5946 5946 5946 5946
5912 5914 5917 5919 5921 5923 5925 5926 5927 5928 5930 5931 5932 5933 5934 5935 5935 5936 5937 5937 5937 5938 5938 5938 5939 5940 5940 5941 5941 5942 5942 5943 5943 5944 5945 5945 5945 5945 5945 5945 5944 5944
5911 5913 5916 5918 5920 5921 5923 5925 5926 5927 5928 5929 5931 5932 5933 5933 5935 5935 5936 5936 5936 5936 5936 5937 5937 5938 5938 5939 5940 5940 5941 5941 5941 5942 5943 5944 5944 5944 5944 5943 5943 5943
5910 5912 5914 5916 5918 5920 5921 5923 5925 5926 5927 5928 5930 5930 5931 5932 5933 5934 5934 5934 5934 5934 5935 5935 5936 5936 5937 5937 5938 5938 5939 5939 5939 5940 5940 5941 5942 5942 5942 5942 5942 5941
5908 5911 5912 5914 5916 5917 5919 5921 5923 5925 5926 5927 5928 5929 5930 5931 5932 5932 5933 5933 5933 5933 5933 5933 5934 5935 5935 5935 5936 5936 5937 5937 5938 5938 5938 5939 5939 5940 5940 5940 5940 5940
5907 5909 5910 5912 5914 5916 5918 5919 5921 5923 5924 5926 5927 5928 5929 5929 5930 5930 5931 5931 5931 5931 5932 5932 5932 5933 5933 5933 5934 5934 5935 5935 5936 5936 5936 5937 5937 5938 5938 5938 5939 5939
5905 5906 5908 5910 5912 5914 5916 5918 5920 5921 5923 5924 5925 5926 5927 5927 5928 5929 5929 5930 5930 5930 5930 5930 5930 5931 5931 5932 5932 5932 5933 5933 5934 5934 5935 5935 5936 5936 5936 5937 5937 5937
5903 5905 5906 5908 5911 5913 5915 5916 5918 5920 5921 5922 5923 5924 5925 5925 5926 5927 5928 5928 5928 5928 5928 5928 5928 5929 5929 5930 5930 5931 5931 5931 5932 5933 5933 5934 5934 5935 5935 5935 5936 5936
5901 5903 5905 5907 5909 5911 5912 5914 5916 5918 5919 5920 5921 5922 5923 5924 5925 5926 5927 5927 5927 5927 5927 5926 5927 5927 5928 5928 5929 5929 5930 5930 5931 5931 5932 5932 5933 5934 5934 5935 5935 5935
5900 5902 5904 5906 5907 5909 5910 5912 5914 5916 5917 5918 5919 5920 5921 5922 5924 5925 5925 5925 5926 5926 5925 5925 5925 5926 5926 5927 5927 5928 5929 5929 5930 5930 5931 5932 5932 5933 5934 5934 5935 5935
5899 5901 5903 5904 5906 5907 5908 5910 5912 5914 5915 5916 5917 5918 5919 5920 5922 5923 5923 5924 5924 5924 5924 5924 5924 5924 5925 5925 5926 5927 5927 5928 5929 5930 5930 5931 5932 5932 5933 5933 5934 5934
5897 5899 5901 5902 5903 5905 5906 5908 5910 5911 5913 5914 5915 5916 5917 5919 5920 5921 5922 5923 5923 5923 5923 5923 5923 5923 5924 5924 5925 5925 5926 5927 5928 5929 5930 5930 5931 5932 5932 5932 5932 5933
5896 5898 5899 5900 5902 5903 5905 5907 5908 5909 5910 5911 5912 5914 5915 5916 5918 5919 5920 5921 5921 5921 5921 5921 5922 5922 5922 5923 5923 5924 5925 5926 5927 5928 5928 5929 5930 5930 5931 5931 5931 5931
5895 5896 5898 5899 5900 5902 5904 5905 5906 5907 5908 5908 5910 5911 5913 5914 5916 5917 5918 5919 5919 5919 5920 5920 5920 5920 5921 5921 5922 5923 5924 5925 5925 5926 5927 5928 5928 5929 5929 5929 5929 5929
5894 5895 5897 5898 5899 5901 5902 5903 5904 5904 5905 5906 5907 5909 5910 5912 5914 5915 5915 5916 5917 5918 5918 5918 5918 5919 5919 5920 5920 5922 5923 5924 5924 5925 5926 5926 5927 5927 5927 5927 5927 5928
5892 5894 5895 5897 5898 5899 5900 5901 5902 5902 5903 5904 5905 5906 5908 5910 5911 5912 5913 5913 5914 5915 5916 5916 5916 5917 5917 5918 5919 5920 5921 5922 5922 5923 5924 5925 5925 5925 5925 5925 5925 5925
5890 5892 5893 5895 5896 5897 5898 5899 5899 5900 5900 5901 5903 5904 5905 5906 5907 5909 5910 5911 5912 5913 5913 5913 5914 5914 5915 5916 5916 5917 5918 5919 5919 5920 5921 5922 5922 5922 5922 5923 5923 5923
5888 5890 5891 5892 5894 5895 5895 5896 5897 5897 5898 5899 5900 5901 5902 5903 5905 5907 5908 5908 5909 5910 5910 5911 5911 5912 5912 5913 5913 5914 5915 5916 5916 5918 5919 5919 5919 5919 5920 5920 5920 5920